EW7376 Weather Reports


time (UTC)temp
C
wind
direction
speed
KPH
gust
KPH
rain 1hr
cm
rain 24hr
cm
rain mn
cm
humidity
%
barometer
mb
20260507023014 13 88 0.0 0.0 0.00 0.00 0.00 78 1017.5
20260507021518 13 88 0.0 0.0 0.00 0.00 0.00 77 1017.3
20260507020010 14 88 0.0 0.0 0.00 0.00 0.00 74 1017.2
20260507014508 15 88 0.0 0.0 0.00 0.00 0.00 72 1017.0
20260507013007 15 88 0.0 0.0 0.00 0.00 0.00 70 1016.8
20260507011507 16 88 0.0 0.0 0.00 0.00 0.00 69 1016.6
20260507010055 16 88 0.0 0.0 0.00 0.00 0.00 68 1016.4
20260507004558 16 89 0.0 0.0 0.00 0.00 0.00 66 1016.2
20260507003053 16 88 0.0 0.0 0.00 0.00 0.00 66 1016.1
20260507001553 16 57 0.0 0.0 0.00 0.00 0.00 66 1015.9
20260507000054 17 331 0.0 0.0 0.00 0.00 0.00 64 1015.8
20260506234555 17 59 0.0 0.0 0.00 0.00 0.00 64 1015.5
20260506233051 17 49 0.0 0.0 0.00 0.00 0.00 63 1015.6
20260506231550 16 36 0.0 0.0 0.00 0.00 0.00 66 1015.6
20260506230040 17 10 0.0 0.0 0.00 0.00 0.00 65 1015.6
20260506224551 16 317 0.0 0.0 0.00 0.00 0.00 66 1015.5
20260506223039 17 313 0.0 0.0 0.00 0.00 0.00 64 1015.3
20260506221537 16 305 0.0 0.0 0.00 0.00 0.00 67 1015.1
20260506220038 16 13 0.0 0.0 0.00 0.00 0.00 65 1015.3
20260506214532 16 61 0.0 0.0 0.00 0.00 0.00 66 1015.6
20260506213033 16 318 0.0 0.0 0.00 0.00 0.00 65 1015.5
20260506211532 16 34 0.0 0.0 0.00 0.00 0.00 66 1015.7
20260506210012 16 43 0.0 0.0 0.00 0.00 0.00 67 1016.0
20260506204506 15 32 0.0 0.0 0.00 0.00 0.00 68 1015.9
20260506203051 15 333 0.0 0.0 0.00 0.00 0.00 69 1015.7
20260506201543 15 22 0.0 0.0 0.00 0.00 0.00 68 1015.7
20260506200034 15 55 0.0 0.0 0.00 0.00 0.00 69 1015.7
20260506194530 15 42 0.0 0.0 0.00 0.00 0.00 70 1015.5
20260506193029 14 360 0.0 0.0 0.00 0.00 0.00 70 1015.1
20260506191534 15 315 0.0 0.0 0.00 0.00 0.00 69 1015.1
20260506190026 15 5 0.0 0.0 0.00 0.00 0.00 69 1014.9
20260506184530 15 72 0.0 0.0 0.00 0.00 0.00 69 1015.2
20260506183022 15 341 0.0 0.0 0.00 0.00 0.00 69 1015.3
20260506181519 14 312 0.0 0.0 0.00 0.00 0.00 70 1015.4
20260506180024 13 73 0.0 0.0 0.00 0.00 0.00 71 1015.2
20260506174556 13 9 0.0 0.0 0.00 0.00 0.00 71 1015.6
20260506173054 13 321 0.0 0.0 0.00 0.00 0.00 69 1016.1
20260506171552 13 334 0.0 0.0 0.00 0.00 0.00 69 1016.7
20260506170040 13 78 0.0 0.0 0.00 0.00 0.00 70 1016.9
20260506164535 12 63 0.0 0.0 0.00 0.00 0.00 72 1016.9
20260506163036 12 355 0.0 0.0 0.00 0.00 0.00 72 1016.4
20260506161528 12 329 0.0 0.0 0.00 0.00 0.00 72 1016.5
20260506160025 12 5 0.0 0.0 0.00 0.00 0.00 71 1016.6
20260506154518 11 338 0.0 0.0 0.00 0.00 0.00 72 1016.3
20260506153017 11 42 0.0 0.0 0.00 0.00 0.00 72 1016.3
20260506151600 11 317 0.0 0.0 0.00 0.00 0.00 73 1016.3
20260506150059 11 338 0.0 0.0 0.00 0.00 0.00 72 1016.6
20260506144555 11 336 0.0 0.0 0.00 0.00 0.00 72 1016.1
20260506143038 11 101 0.0 0.0 0.00 0.00 0.00 72 1015.5
20260506141535 11 20 0.0 0.0 0.00 0.00 0.00 73 1015.6
20260506140034 11 46 0.0 0.0 0.00 0.00 0.00 73 1015.7
20260506134530 11 355 0.0 0.0 0.00 0.00 0.00 73 1015.4
20260506133041 11 17 0.0 0.0 0.00 0.00 0.00 74 1015.0
20260506131530 11 5 0.0 0.0 0.00 0.00 0.00 74 1014.4
20260506130024 10 5 0.0 0.0 0.00 0.00 0.00 74 1014.3
20260506124511 10 360 0.0 0.0 0.00 0.00 0.00 74 1014.4
20260506123010 10 344 0.0 0.0 0.00 0.00 0.00 74 1013.9
20260506121510 10 5 0.0 0.0 0.00 0.00 0.00 74 1014.0
20260506120008 10 319 0.0 0.0 0.00 0.00 0.00 74 1013.7
20260506114508 10 33 0.0 0.0 0.00 0.00 0.00 75 1013.8
20260506113009 10 346 0.0 0.0 0.00 0.00 0.00 75 1013.6
20260506111505 10 330 0.0 0.0 0.00 0.00 0.00 76 1013.4
20260506110004 10 321 0.0 0.0 0.00 0.00 0.00 77 1013.4
20260506104554 10 17 0.0 0.0 0.00 0.00 0.00 77 1013.0
20260506103043 10 360 0.0 0.0 0.00 0.00 0.00 77 1013.0
20260506101538 10 335 0.0 0.0 0.00 0.00 0.00 78 1012.7
20260506100032 10 311 0.0 0.0 0.00 0.00 0.00 79 1012.7
20260506094529 10 323 0.0 0.0 0.00 0.00 0.00 81 1012.7
20260506093026 10 306 0.0 0.0 0.00 0.00 0.00 81 1012.6
20260506091524 10 315 0.0 0.0 0.00 0.00 0.00 82 1012.4
20260506090022 10 360 0.0 0.0 0.00 0.00 0.00 82 1012.0
20260506084529 10 348 0.0 0.0 0.00 0.00 0.00 82 1011.9
20260506083018 10 318 0.0 0.0 0.00 0.00 0.00 82 1011.5
20260506081505 10 329 0.0 0.0 0.00 0.00 0.00 83 1011.2
20260506073003 10 336 0.0 0.0 0.00 0.00 0.00 83 1010.8
20260506071502 10 314 0.0 0.0 0.00 0.00 0.00 83 1011.2
20260506061548 10 325 0.0 0.0 0.00 0.00 0.00 82 1010.5
20260506044536 11 360 0.0 0.0 0.00 0.00 0.00 78 1010.9
20260506043036 11 43 0.0 0.0 0.00 0.00 0.00 78 1010.9
20260506041516 11 32 0.0 0.0 0.00 0.00 0.00 78 1010.9
20260506040032 11 308 0.0 0.0 0.00 0.00 0.00 79 1010.9
20260506034601 11 343 0.0 0.0 0.00 0.00 0.00 80 1010.6
20260506033058 11 328 0.0 0.0 0.00 0.00 0.00 80 1010.3
20260506031556 12 335 0.0 0.0 0.00 0.00 0.00 80 1009.8
20260506030057 12 340 0.0 0.0 0.00 0.00 0.00 79 1009.6
20260506024557 12 316 0.0 0.0 0.00 0.00 0.00 79 1009.7